TIME,DELAY(SENSOR),PRES,T(CTD),SAL,OXYGEN,RAWTEMP,T(OPTODE),TCPHASE,TURBIDITY,TURBIDITY_GAIN,FLUOR,BETA,CDOM,ED411.5,ED443.8,ED489.6,PAR,COMP,TILT,TILTY(TILT),CHECK
1340629477,6468,248.4499969482422000,5.8850998878479000,34.8902015686035160,341.0964050292969000,624.7857055664062000,5.8662400245666500,32.6195106506347660,16,3,50,112,62,2147637750,2147396982,2147280374,2148321348,826,2,-4,56679
1340629538,6468,245.2799987792968800,5.8832998275756840,34.8884010314941400,341.2134094238281000,624.8046875000000000,5.8656249046325680,32.6157188415527340,16,3,48,113,62,2147639657,2147399419,2147280411,2148316388,117,1,-4,44940
1340629599,6467,242.1799926757812500,5.8852000236511230,34.8880004882812500,341.2800903320312500,624.7534790039062000,5.8672752380371090,32.6128196716308600,16,3,48,113,64,2147637490,2147393206,2147280978,2148321018,3443,1,-4,1006
1340629660,6468,239.1900024414062500,5.8913998603820800,34.8857994079589840,338.5763854980469000,624.5662231445312000,5.8733181953430180,32.7015113830566400,16,3,49,124,63,2147638092,2147396301,2147279204,2148318696,2947,1,-4,24856
1340629721,6469,236.2299957275390600,5.9095001220703125,34.8819999694824200,335.5609130859375000,624.0988159179688000,5.8883819580078125,32.7973289489746100,16,3,48,108,64,2147634024,2147395401,2147279290,2148323981,2363,0,-4,28569
1340629782,6467,233.4100036621093800,5.9133000373840330,34.8765983581543000,331.7744140625000000,623.9528808593750000,5.8930821418762210,32.9271202087402340,16,3,48,109,62,2147639442,2147395002,2147283986,2148319035,2172,1,-4,17522
1340629843,6468,230.6999969482422000,5.8758997917175290,34.8680992126464840,331.8999023437500000,624.8327026367188000,5.8647251129150390,32.9380607604980500,16,3,48,112,63,2147638417,2147394235,2147280543,2148318445,1872,0,-4,14935
1340629904,6466,228.0500030517578000,5.8873000144958500,34.8638992309570300,336.4494018554687500,624.7069091796875000,5.8687801361083980,32.7774696350097660,16,3,48,117,62,2147634312,2147396585,2147281188,2148321526,1590,2,-4,28994
1340629965,6467,225.5000000000000000,5.8887000083923340,34.8629989624023440,338.3555908203125000,624.6704711914062000,5.8699531555175780,32.7110786437988300,16,3,49,115,62,2147637453,2147397055,2147279103,2148320754,1301,2,-4,29894
1340630026,6468,223.0299987792968800,5.8990001678466800,34.8571014404296900,339.9090881347656000,624.3206176757812000,5.8812308311462400,32.6518898010253900,16,3,49,113,63,2147637082,2147392982,2147279570,2148317618,842,0,-4,60968
1340630116,6468,218.8000030517578000,5.9158000946044920,34.8555984497070300,340.6900939941406000,623.8408813476562000,5.8966941833496090,32.6165618896484400,16,3,48,113,63,2147635642,2147396969,2147283588,2148320571,110,1,-4,18242
1340630177,6467,215.1900024414062500,5.9366002082824710,34.8558998107910160,339.7022094726562500,623.1832275390625000,5.9178872108459470,32.6387901306152340,16,3,48,115,64,2147635469,2147394797,2147280250,2148321439,3207,0,-4,3163
1340630240,6468,211.5000000000000000,5.9523000717163090,34.8572006225585940,337.9035034179687500,622.5537719726562000,5.9381661415100100,32.6894302368164060,16,3,48,112,64,2147637010,2147395135,2147283446,2148319866,2715,0,-4,64378
1340630301,6468,207.8899993896484400,5.9988999366760250,34.8563003540039060,335.7141113281250000,621.3267211914062000,5.9776878356933590,32.7437705993652340,16,3,48,115,63,2147636777,2147394980,2147278226,2148316927,2458,0,-4,17272
1340630364,6469,204.1999969482422000,6.0107002258300780,34.8560981750488300,336.1401062011719000,620.8795166015625000,5.9920878410339355,32.7207603454589840,16,3,48,113,63,2147638367,2147396681,2147280589,2148318701,1954,0,-4,48513
1340630425,6468,200.6499938964843800,6.0258998870849610,34.8529014587402340,336.4461975097656000,620.4069213867188000,6.0073051452636720,32.7022895812988300,16,3,48,113,62,2147638761,2147394715,2147281988,2148318541,1548,2,-4,52327
1340630488,6469,196.9900054931640600,6.0345997810363770,34.8493003845214840,337.8739013671875000,620.1276245117188000,6.0162959098815920,32.6480598449707000,16,3,48,111,63,2147638719,2147395880,2147282746,2148320058,1232,1,-4,48846
1340630549,6468,193.5000000000000000,6.0401000976562500,34.8483009338378900,339.1907958984375000,619.9042968750000000,6.0234827995300290,32.5991516113281250,16,3,48,113,64,2147640196,2147396027,2147279030,2148318514,681,2,-4,24102
1340630612,6468,189.8399963378906200,6.0623998641967770,34.8412017822265600,339.9578857421875000,619.2733154296875000,6.0437932014465330,32.5617790222168000,16,3,49,116,62,2147636854,2147396973,2147284255,2148318258,87,2,-4,8369
1340630673,6467,186.2299957275390600,6.0886001586914060,34.8391990661621100,342.3432922363281000,618.4631958007812000,6.0698590278625490,32.4669189453125000,16,3,48,114,62,2147637091,2147395126,2147281897,2148321302,3288,2,-4,52030
1340630736,6466,182.4199981689453000,6.1170001029968260,34.8359985351562500,343.6629028320312500,617.6716918945312000,6.0953240394592285,32.4088401794433600,16,3,48,116,62,2147634253,2147394079,2147281659,2148319940,2915,0,-4,19705
1340630797,6468,178.6100006103515600,6.1227998733520510,34.8358001708984400,344.8244934082031000,617.3847045898438000,6.1045532226562500,32.3647994995117200,16,3,50,118,62,2147636306,2147394646,2147286019,2148319135,2736,1,-4,764
1340630883,6469,173.6799926757812500,6.1421999931335450,34.8352012634277340,345.8095092773437500,616.8347167968750000,6.1222438812255860,32.3223304748535160,16,3,50,117,62,2147637330,2147393224,2147284685,2148320566,2120,1,-4,31281
1340630944,6468,170.7899932861328000,6.1602997779846190,34.8343009948730500,346.2591857910156000,616.2918701171875000,6.1396961212158200,32.2978897094726560,16,3,50,116,62,2147635021,2147393567,2147291410,2148320351,2128,0,-4,8709
1340631007,6466,167.8500061035156200,6.1712999343872070,34.8340988159179700,347.1065063476562500,615.9080810546875000,6.1520328521728520,32.2630500793457000,15,3,48,114,62,2147635574,2147395245,2147290372,2148321041,1819,0,-4,15773
1340631068,6468,164.9499969482422000,6.1758999824523930,34.8340988159179700,347.2854003906250000,615.7327270507812000,6.1576728820800780,32.2541503906250000,16,3,49,111,62,2147637837,2147393211,2147288671,2148317836,1660,2,-4,41463
1340631131,6467,162.0099945068359400,6.1792001724243160,34.8333015441894500,347.3825988769531000,615.6093750000000000,6.1616377830505370,32.2485694885253900,16,3,48,115,62,2147638111,2147396461,2147299496,2148319428,1515,0,-4,17422
1340631192,6467,159.2100067138672000,6.1932001113891600,34.8306007385253900,347.2499084472656000,615.2293701171875000,6.1738510131835940,32.2464294433593750,16,3,50,112,62,2147636246,2147396794,2147301791,2148322637,1191,1,-4,1512
1340631255,6468,156.3899993896484400,6.1960000991821290,34.8292999267578100,347.2605895996094000,615.1334228515625000,6.1769371032714840,32.2446098327636700,16,3,48,113,62,2147633467,2147398061,2147305458,2148322386,959,2,-4,8733
1340631316,6467,153.7799987792968800,6.1954998970031740,34.8272018432617200,346.8055114746094000,615.1013793945312000,6.1779651641845700,32.2591094970703100,16,3,48,112,62,2147636617,2147395807,2147315889,2148326445,714,1,-4,43080
1340631379,6468,151.2799987792968800,6.1975998878479000,34.8263015747070300,346.4061889648437500,615.0416259765625000,6.1798877716064450,32.2713584899902340,16,3,48,110,62,2147636027,2147394427,2147295698,2148321960,165,0,-4,34474
1340631440,6467,149.0099945068359400,6.2007999420166020,34.8258018493652340,346.5119934082031000,614.9097900390625000,6.1841239929199220,32.2653312683105500,16,3,50,116,64,2147640314,2147393215,2147292781,2148321599,3525,0,-4,37640
1340631527,6469,145.4400024414062500,6.2121000289916990,34.8224983215332000,347.2333068847656000,614.6351928710938000,6.1929469108581540,32.2369918823242200,16,3,48,115,62,2147638431,2147393517,2147297841,2148322129,3012,0,-4,56859
1340631588,6469,142.2599945068359400,6.2238001823425290,34.8196983337402340,348.0658874511719000,614.1746826171875000,6.2077450752258300,32.2012290954589840,16,3,49,115,62,2147637357,2147393791,2147295689,2148318083,2663,0,-4,61720
1340631651,6467,139.0500030517578000,6.2385997772216800,34.8154983520507800,349.1225891113281000,613.7982177734375000,6.2198429107666020,32.1601181030273440,15,3,48,115,62,2147636182,2147396159,2147291003,2148319963,2105,1,-4,25346
1340631712,6468,136.0899963378906200,6.2500000000000000,34.8126983642578100,350.3617858886719000,613.4515991210938000,6.2309761047363280,32.1131286621093750,16,3,50,116,62,2147637321,2147396790,2147297782,2148319295,1951,0,-4,22427
1340631775,6466,133.1799926757812500,6.2554001808166500,34.8126983642578100,351.2155151367187500,613.2363891601562000,6.2378897666931150,32.0814781188964840,16,3,50,116,62,2147636826,2147396735,2147300122,2148319510,1656,1,-4,49792
1340631836,6468,130.3899993896484400,6.2715001106262210,34.8068008422851560,351.4555969238281000,612.7927246093750000,6.2521419525146480,32.0661201477050800,16,3,50,120,62,2147638545,2147396589,2147310906,2148324954,1304,2,-4,12545
1340631899,6467,127.5000000000000000,6.2799000740051270,34.8050003051757800,351.8634948730469000,612.4957885742188000,6.2616748809814450,32.0474205017089840,16,3,50,118,62,2147635670,2147398211,2147312227,2148324250,945,0,-4,24828
1340631960,6468,124.5999984741211000,6.3008999824523930,34.8004989624023440,351.6863098144531000,611.8947753906250000,6.2809729576110840,32.0430793762207000,16,3,50,119,62,2147633841,2147392836,2147302056,2148322642,276,2,-4,5773
1340632023,6468,121.5299987792968800,6.3070998191833500,34.7993011474609400,352.0010070800781000,611.6898803710938000,6.2875537872314450,32.0293502807617200,16,3,51,116,62,2147639615,2147395231,2147302345,2148321457,3426,0,-4,25382
1340632084,6466,118.3300018310546900,6.3168997764587400,34.7970008850097660,351.9560852050781000,611.3646240234375000,6.2979979515075680,32.0249290466308600,16,3,50,118,62,2147637841,2147397142,2147311112,2148324607,3056,1,-4,39285
1340632147,6468,114.9000015258789000,6.3292999267578125,34.7965011596679700,351.8031921386719000,610.9876708984375000,6.3100972175598145,32.0236816406250000,16,3,52,116,62,2147634545,2147395647,2147321105,2148323981,2752,1,-4,13784
1340632208,6468,111.4800033569336000,6.3445000648498535,34.7925987243652340,351.5495910644531000,610.4920043945312000,6.3260078430175780,32.0235595703125000,16,3,51,118,64,2147639336,2147397677,2147337403,2148328525,2589,2,-4,61679
1340632271,6467,107.9300003051757800,6.3601999282836910,34.7877006530761700,351.2611999511719000,609.9785156250000000,6.3424868583679200,32.0241508483886700,16,3,54,123,62,2147638879,2147401311,2147345718,2148327729,2365,2,-4,28821
1340632332,6466,104.6200027465820300,6.3684000968933105,34.7863006591796900,351.3393859863281000,609.6627807617188000,6.3526148796081540,32.0161285400390600,16,3,54,118,62,2147638646,2147400081,2147351332,2148331834,1998,0,-4,18967
1340632395,6466,101.3199996948242200,6.3991999626159670,34.7816009521484400,351.7637939453125000,608.8455200195312000,6.3788380622863770,31.9885501861572270,16,3,56,126,62,2147639702,2147399404,2147354527,2148331872,1729,0,-4,61270
1340632456,6467,98.2799987792968800,6.4145002365112305,34.7799987792968750,352.3992004394531000,608.3936767578125000,6.3933300971984860,31.9601402282714840,16,3,57,125,62,2147639400,2147401243,2147359405,2148331532,1100,0,-4,11506
1340632519,6468,95.6999969482421900,6.4223999977111820,34.7785987854003900,353.2648010253906000,608.0418701171875000,6.4046130180358890,31.9259891510009770,16,3,60,125,62,2147638162,2147401709,2147352063,2148330335,1014,1,-4,58576
1340632580,6468,93.3300018310546900,6.4380998611450195,34.7757987976074200,353.7590942382812500,607.5993041992188000,6.4188060760498050,31.9024200439453120,16,3,61,124,62,2147640447,2147404068,2147351908,2148329458,877,0,-4,64500
1340632670,6468,89.4899978637695300,6.4591999053955080,34.7723999023437500,352.9558105468750000,606.9788208007812000,6.4387001991271970,31.9177398681640620,16,3,62,127,62,2147640141,2147407081,2147392132,2148343112,616,2,-4,23220
1340632731,6468,85.5100021362304700,6.4821000099182130,34.7709999084472660,353.0830078125000000,606.2197265625000000,6.4630360603332520,31.9006404876709000,16,3,66,130,62,2147641627,2147432387,2147628109,2148390852,210,0,-4,19694
1340632794,6466,81.1399993896484400,6.4918999671936035,34.7704010009765600,353.6929016113281000,605.8082885742188000,6.4762229919433590,31.8737792968750000,16,3,68,134,62,2147643542,2147425668,2147549475,2148379044,3221,0,-4,11308
1340632855,6469,76.7099990844726600,6.5387001037597660,34.7661018371582000,353.6220092773437500,604.4039916992188000,6.5212187767028810,31.8525104522705080,16,3,71,138,62,2147645709,2147436352,2147607080,2148392603,2753,2,-4,57464
1340632941,6469,71.0100021362304700,6.6078000068664550,34.7631988525390600,352.1799011230469000,602.3563232421875000,6.5867981910705570,31.8644695281982420,16,3,80,135,62,2147652442,2147466802,2147790843,2148445672,2591,2,-4,44929
1340633002,6467,67.8099975585937500,6.6707000732421875,34.7593002319335940,352.5379943847656000,600.5111083984375000,6.6458549499511720,31.8218002319335940,14,3,94,138,62,2147654445,2147467793,2147764689,2148440369,2439,2,-4,61461
1340633065,6470,64.8300018310546900,6.7476000785827640,34.7601013183593750,352.5227966308594000,598.5352783203125000,6.7090587615966800,31.7891502380371100,15,3,100,141,63,2147654349,2147470934,2147760448,2148445686,2175,2,-4,35148
1340633126,6469,62.2200012207031250,6.8399000167846680,34.7644996643066400,350.6523132324219000,595.8065795898438000,6.7962861061096190,31.8038597106933600,15,3,100,146,63,2147655647,2147466130,2147728584,2148442399,1780,1,-4,33656
1340633189,6468,59.7900009155273440,6.8724999427795410,34.7657012939453100,347.9563903808594000,594.1765136718750000,6.8483600616455080,31.8651504516601560,14,3,98,143,64,2147652292,2147457526,2147648328,2148424516,1448,1,-4,41721
1340633250,6469,57.5499992370605500,6.9100999832153320,34.7611999511718750,347.4173889160156000,593.2114257812500000,6.8791809082031250,31.8667106628417970,17,3,112,150,64,2147659858,2147467839,2147706577,2148446047,1183,2,-4,48440
1340633336,6470,53.9799995422363300,7.1122999191284180,34.7602005004882800,347.6130981445312500,586.1845092773438000,7.1033120155334470,31.7428703308105470,17,3,126,163,64,2147666463,2147491661,2147828840,2148495099,756,0,-4,12470
1340633397,6468,50.9099998474121100,7.3632998466491700,34.7569007873535160,348.1156921386719000,579.0541992187500000,7.3302760124206540,31.6085090637207030,18,3,129,167,62,2147673736,2147507272,2147885087,2148524932,627,0,-4,2827
1340633460,6469,48.0099983215332000,7.5083999633789060,34.7579994201660160,353.0645141601562500,574.1804199218750000,7.4851508140563965,31.3677692413330080,20,3,131,176,62,2147677485,2147500521,2147825988,2148514353,73,2,-4,36363
1340633521,6468,45.3100013732910160,7.6421999931335450,34.7557983398437500,353.2374877929687500,570.6727294921875000,7.5964832305908200,31.3052196502685550,19,3,117,176,62,2147663259,2147458193,2147611039,2148446371,2678,1,-4,36930
1340633584,6470,42.6599998474121100,7.6637001037597660,34.7328987121582000,349.2513122558594000,569.0610961914062000,7.6476001739501950,31.4079895019531250,21,3,100,171,64,2147663958,2147458810,2147595496,2148447483,2397,0,-4,34504
1340633645,6470,40.2099990844726560,7.8421001434326170,34.7327995300293000,344.3616943359375000,563.7337036132812000,7.8164081573486330,31.4818592071533200,22,3,127,204,64,2147679587,2147488570,2147725723,2148514989,2311,0,-4,35887
1340633708,6471,37.7799987792968750,8.1063995361328120,34.7519989013671900,345.2077941894531000,555.6353149414062000,8.0725555419921880,31.3235301971435550,26,3,161,230,64,2147693348,2147504685,2147791103,2148557823,2357,2,-4,23226
1340633769,6468,35.6699981689453100,8.4148998260498050,34.7490997314453100,347.2120971679687500,547.9608764648438000,8.3147802352905270,31.1355094909667970,34,3,200,249,62,2147701974,2147522989,2147858756,2148597211,1641,2,-4,11433
1340633858,6471,32.8100013732910160,9.0840997695922850,34.7411994934082000,347.0002136230469000,525.4144897460938000,9.0236511230468750,30.7888507843017580,43,3,410,363,62,2147737147,2147572109,2148042130,2148711602,481,2,-4,32654
1340633919,6470,30.4300003051757800,9.5640001296997070,34.7290992736816400,345.5799865722656000,509.4591979980469000,9.5229320526123050,30.5901203155517580,90,3,1984,671,64,2147826866,2147717366,2148507002,2148929170,3076,1,-4,29004
1340634009,6470,26.2000007629394530,10.1902999877929690,34.7020988464355500,352.4713134765625000,489.6180114746094000,10.1412601470947270,30.0717201232910160,162,3,1429,527,67,2148187533,2148298317,2149978504,2149573539,2584,0,-4,53008
1340634070,6469,22.3400001525878900,10.3999004364013670,34.7084999084472660,356.8454895019531000,481.9872131347656000,10.3783397674560550,29.8224906921386720,69,3,1106,544,66,2148988301,2149469933,2152405577,2150655834,2339,0,-4,35963
1340634133,6468,18.3099994659423830,11.1926002502441400,34.7193984985351560,360.4197082519531000,456.0115051269531000,11.1826200485229500,29.3364391326904300,90,3,736,591,66,2150449754,2151418728,2155817169,2152225873,3007,1,-5,52694
1340634194,6471,15.4700002670288090,11.6281995773315430,34.7377014160156250,361.7160034179687500,442.3181152343750000,11.6049900054931640,29.1031703948974600,99,3,628,605,64,2152099729,2153451295,2158892749,2153725563,3344,0,-5,18080
1340634257,6470,12.9700002670288090,11.9635000228881840,34.7254981994628900,361.1452026367187500,432.0234069824219000,11.9218301773071290,28.9757499694824220,86,3,522,567,66,2155223515,2157144548,2164315382,2156473041,665,1,-4,52003
1340634318,6468,10.8599996566772460,12.1782999038696290,34.7235984802246100,359.4975891113281000,424.1742858886719000,12.1630401611328120,28.9164009094238280,84,3,497,557,64,2159876754,2162444872,2171496150,2160270509,1192,1,-6,34282
1340634397,6470,7.8400001525878910,12.8044996261596680,34.7229995727539060,353.6156921386719000,403.3270874023437500,12.8021898269653320,28.8080596923828120,96,3,559,524,62,2169222124,2172569439,2183229275,2167003985,1163,6,-6,55117
1340634459,6471,5.3400001525878910,12.9380998611450200,34.7235984802246100,350.8738098144531000,399.1198120117187500,12.9309396743774410,28.8349399566650400,99,3,471,520,61,2180777846,2184647355,2195554696,2175718751,307,9,-2,6170
1340634509,6469,3.2500000000000000,12.9656000137329100,34.7247009277343750,350.1336975097656000,397.9028930664062500,12.9681596755981450,28.8413391113281250,98,3,427,544,60,2199509046,2203889389,2215033686,2191880159,605,-1,-7,45202
1340634557,6468,2.1500000953674316,0.0000000000000000,0.0000000000000000,350.1169128417969000,397.8738098144531000,12.9690504074096680,28.8415203094482420,94,3,400,547,61,2208298339,2212636324,2222965485,2200584082,219,31,-15,42686
1340634593,6468,0.8100000023841858,0.0000000000000000,0.0000000000000000,349.8702087402344000,397.8370056152344000,12.9701795578002930,28.8486499786376950,97,3,339,525,62,2220692420,2224622203,2232778893,2215499012,1643,15,31,2473
